This demonstration page uses our WeatherBlox Daily Observations layout. Learn more.

Hourly Observations for October 13, 2019

Temp ( °F °C ) Dew Point ( °F °C ) Humidity (%) Winds ( mph kmh ) Pressure ( in mb ) Visibility ( mi km ) Precip ( " mm )
12:15 am 00:15 Clear 34 1.1 27 -2.9 75 75 Calm 30 1016 10 16.09344 0 0
12:35 am 00:35 Clear 34 0.9 26 -3.3 74 74 Calm 30 1016 10 16.09344 0 0
12:55 am 00:55 Clear 34 1 27 -2.9 75 75 Calm 30 1016 10 16.09344 0 0
1:15 am 01:15 Clear 34 0.9 27 -2.7 77 77 Calm 30 1016 10 16.09344 0 0
1:35 am 01:35 Clear 32 0.1 27 -3 80 80 Calm 30 1016 10 16.09344 0 0
1:55 am 01:55 Clear 32 0 27 -2.9 81 81 Calm 30 1016 10 16.09344 0 0
2:15 am 02:15 Clear 31 -0.6 26 -3.1 83 83 Calm 30 1016 10 16.09344 0 0
2:35 am 02:35 Clear 31 -0.4 27 -2.9 83 83 Calm 30.03 1017 10 16.09344 0 0
2:55 am 02:55 Clear 30 -1.1 26 -3.2 86 86 Calm 30.06 1018 10 16.09344 0 0
3:15 am 03:15 Clear 29 -1.6 26 -3.5 87 87 Calm 30.06 1018 10 16.09344 0 0
3:35 am 03:35 Clear 32 -0.1 27 -3 81 81 W 3 6 30.03 1017 10 16.09344 0 0
3:55 am 03:55 Clear 31 -0.8 26 -3.1 85 85 WNW 3 6 30.03 1017 10 16.09344 0 0
4:15 am 04:15 Clear 30 -1.1 26 -3.2 86 86 NW 5 7 30.06 1018 10 16.09344 0 0
4:35 am 04:35 Clear 32 0 26 -3.5 78 78 NNW 5 7 30.03 1017 10 16.09344 0 0
4:55 am 04:55 Clear 31 -0.7 26 -3.6 81 81 NW 3 6 30.03 1017 10 16.09344 0 0
5:15 am 05:15 Clear 31 -0.7 26 -3.4 82 82 WNW 5 7 30.03 1017 10 16.09344 0 0
5:35 am 05:35 Clear 30 -1 25 -3.7 82 82 Calm 30.06 1018 10 16.09344 0 0
5:55 am 05:55 Clear 31 -0.7 26 -3.6 81 81 WNW 3 6 30.03 1017 10 16.09344 0 0
6:15 am 06:15 Clear 30 -1.3 26 -3.4 86 86 Calm 30.06 1018 10 16.09344 0 0
6:35 am 06:35 Clear 29 -1.7 26 -3.6 87 87 WNW 3 6 30.06 1018 10 16.09344 0 0
6:55 am 06:55 Clear 28 -2 25 -3.7 88 88 NW 3 6 30.06 1018 10 16.09344 0 0
7:15 am 07:15 Clear 29 -1.5 25 -3.7 85 85 WNW 3 6 30.09 1019 10 16.09344 0 0
7:55 am 07:55 Sunny 28 -2.5 25 -4 90 90 Calm 30.09 1019 10 16.09344 0 0
8:15 am 08:15 Sunny 29 -1.7 26 -3.6 87 87 WNW 3 6 30.09 1019 10 16.09344 0 0
8:35 am 08:35 Sunny 31 -0.7 27 -2.7 87 87 WNW 3 6 30.09 1019 10 16.09344 0 0
8:55 am 08:55 Sunny 34 1 29 -1.7 82 82 NW 5 7 30.06 1018 10 16.09344 0 0
9:15 am 09:15 Sunny 36 2.3 30 -1.1 78 78 Calm 30.09 1019 10 16.09344 0 0
9:35 am 09:35 Sunny 40 4.5 32 0 73 73 N 3 6 30.06 1018 10 16.09344 0 0
9:55 am 09:55 Sunny 43 6 32 0 66 66 N 3 6 30.03 1017 10 16.09344 0 0
10:15 am 10:15 Sunny 45 7.4 29 -1.5 54 54 Calm 30.03 1017 10 16.09344 0 0
10:35 am 10:35 Sunny 47 8.3 26 -3.1 45 45 N 5 7 30.03 1017 10 16.09344 0 0
10:55 am 10:55 Sunny 48 9.1 26 -3.4 42 42 Calm 30.03 1017 10 16.09344 0 0
11:15 am 11:15 Sunny 50 9.8 26 -3.3 40 40 Calm 30 1016 10 16.09344 0 0
11:35 am 11:35 Sunny 51 10.6 27 -3 39 39 Calm 30 1016 10 16.09344 0 0
11:55 am 11:55 Sunny 53 11.7 28 -2.5 37 37 Calm 30 1016 10 16.09344 0 0
12:15 pm 12:15 Sunny 55 12.6 28 -2.1 36 36 WNW 7 11 29.97 1015 10 16.09344 0 0
12:55 pm 12:55 Sunny 57 14.1 29 -1.6 34 34 WNW 7 11 29.97 1015 10 16.09344 0 0
1:15 pm 13:15 Sunny 58 14.5 29 -1.6 33 33 NW 5 7 29.94 1014 10 16.09344 0 0
1:35 pm 13:35 Sunny 59 14.9 30 -1.1 34 34 W 7 11 29.94 1014 10 16.09344 0 0
1:50 pm 13:50 Sunny 60 15.3 30 -1.2 32 32 SSW 3 6 29.94 1014 10 16.09344 0 0
2:15 pm 14:15 Sunny 61 16.3 30 -0.9 31 31 Calm 29.91 1013 10 16.09344 0 0
2:35 pm 14:35 Sunny 63 17.1 31 -0.8 30 30 W 7 11 29.88 1012 10 16.09344 0 0
2:55 pm 14:55 Sunny 64 17.8 31 -0.4 29 29 WSW 3 6 29.88 1012 10 16.09344 0 0
3:15 pm 15:15 Sunny 64 18 31 -0.8 28 28 Calm 29.88 1012 7 11.265408 0 0
3:35 pm 15:35 Sunny 65 18.6 32 -0.2 28 28 Calm 29.88 1012 10 16.09344 0 0
3:55 pm 15:55 Sunny 66 18.8 31 -0.4 28 28 W 3 6 29.88 1012 10 16.09344 0 0
4:15 pm 16:15 Sunny 65 18.6 32 -0.1 28 28 W 5 7 29.88 1012 10 16.09344 0 0
4:35 pm 16:35 Sunny 66 18.7 31 -0.7 27 27 NW 3 6 29.88 1012 10 16.09344 0 0
4:55 pm 16:55 Sunny 67 19.4 32 -0.2 27 27 WNW 8 13 29.85 1011 10 16.09344 0 0
5:15 pm 17:15 Sunny 66 19 30 -1 26 26 Calm 29.85 1011 10 16.09344 0 0
5:35 pm 17:35 Sunny 66 18.7 31 -0.8 27 27 SW 3 6 29.88 1012 10 16.09344 0 0
5:55 pm 17:55 Sunny 65 18.6 30 -0.9 27 27 Calm 29.88 1012 10 16.09344 0 0
6:15 pm 18:15 Sunny 63 17.1 32 -0.1 31 31 NNE 5 7 29.88 1012 10 16.09344 0 0
6:35 pm 18:35 Sunny 61 16 31 -0.5 33 33 NE 3 6 29.88 1012 10 16.09344 0 0
6:55 pm 18:55 Sunny 59 15.1 31 -0.8 34 34 Calm 29.91 1013 10 16.09344 0 0
7:15 pm 19:15 Clear 57 13.9 30 -1.1 36 36 E 5 7 29.91 1013 10 16.09344 0 0
7:35 pm 19:35 Clear 51 10.6 31 -0.6 46 46 E 6 9 29.94 1014 10 16.09344 0 0
7:55 pm 19:55 Clear 48 9 31 -0.8 51 51 ESE 7 11 29.94 1014 10 16.09344 0 0
8:15 pm 20:15 Clear 47 8.6 31 -0.8 52 52 E 8 13 29.94 1014 10 16.09344 0 0
8:35 pm 20:35 Clear 44 6.7 31 -0.5 60 60 E 5 7 30 1016 10 16.09344 0 0
8:55 pm 20:55 Clear 45 7.2 30 -0.9 57 57 ESE 7 11 30 1016 10 16.09344 0 0
9:15 pm 21:15 Clear 46 8 30 -1 53 53 ESE 5 7 30 1016 10 16.09344 0 0
9:35 pm 21:35 Clear 43 6.3 30 -1.1 59 59 Calm 30 1016 10 16.09344 0 0
9:55 pm 21:55 Clear 42 5.7 30 -1 62 62 Calm 30 1016 10 16.09344 0 0
10:15 pm 22:15 Clear 41 5.2 30 -1.1 64 64 E 6 9 30.03 1017 10 16.09344 0 0
10:35 pm 22:35 Clear 41 5.2 30 -1 65 65 E 5 7 30.03 1017 10 16.09344 0 0
10:55 pm 22:55 Clear 41 5.1 30 -1.1 65 65 E 3 6 30.03 1017 10 16.09344 0 0
11:15 pm 23:15 Clear 42 5.6 30 -1.2 62 62 ESE 5 7 30.06 1018 10 16.09344 0 0
11:35 pm 23:35 Clear 41 5 30 -1.3 64 64 ESE 5 7 30.06 1018 10 16.09344 0 0
11:55 pm 23:55 Clear 40 4.6 30 -1.2 66 66 ESE 5 7 30.03 1017 10 16.09344 0 0

Powered by AerisWeather